EW9592 Weather Reports


Display with metric or nautical units.
time (UTC)temp
F
wind
direction
speed
MPH
gust
MPH
rain 1hr
in
rain 24hr
in
rain mn
in
humidity
%
barometer
mb
20260509221543 77 248 0.0 4.0 0.00 0.00 0.00 45 1008.2
20260509220043 76 77 0.0 2.0 0.00 0.00 0.00 47 1008.2
20260509214542 76 70 0.0 1.0 0.00 0.00 0.00 47 1008.2
20260509213041 76 246 1.0 4.0 0.00 0.00 0.00 45 1008.3
20260509211539 76 153 1.0 9.0 0.00 0.00 0.00 48 1008.2
20260509210044 76 233 0.0 2.0 0.00 0.00 0.00 48 1008.3
20260509204538 76 356 0.0 3.0 0.00 0.00 0.00 48 1008.5
20260509203034 75 127 0.0 8.0 0.00 0.00 0.00 49 1008.5
20260509201537 75 287 0.0 3.0 0.00 0.00 0.00 54 1008.7
20260509200031 75 82 0.0 5.0 0.00 0.00 0.00 53 1008.7
20260509194543 74 143 0.0 3.0 0.00 0.00 0.00 54 1009.0
20260509193031 74 357 0.0 3.0 0.00 0.00 0.00 53 1009.1
20260509191528 74 138 1.0 5.0 0.00 0.00 0.00 53 1009.1
20260509190027 74 128 0.0 2.0 0.00 0.00 0.00 56 1009.2
20260509184527 73 252 0.0 2.0 0.00 0.00 0.00 58 1009.4
20260509183023 72 115 1.0 5.0 0.00 0.00 0.00 55 1009.5
20260509181521 72 218 0.0 3.0 0.00 0.00 0.00 57 1009.3
20260509180017 71 204 2.0 5.0 0.00 0.00 0.00 57 1009.4
20260509174515 71 49 0.0 3.0 0.00 0.00 0.00 60 1009.5
20260509173022 70 125 1.0 4.0 0.00 0.00 0.00 60 1009.6
20260509171512 70 9 0.0 4.0 0.00 0.00 0.00 61 1009.4
20260509170014 69 233 0.0 4.0 0.00 0.00 0.00 63 1009.5
20260509164511 69 23 0.0 5.0 0.00 0.00 0.00 62 1009.6
20260509163010 69 119 0.0 4.0 0.00 0.00 0.00 61 1009.3
20260509161506 68 30 0.0 3.0 0.00 0.00 0.00 65 1009.4
20260509160007 69 13 1.0 2.0 0.00 0.00 0.00 63 1009.4
20260509154502 68 114 0.0 3.0 0.00 0.00 0.00 66 1009.3
20260509153105 67 167 0.0 3.0 0.00 0.00 0.00 68 1009.2
20260509151556 66 11 0.0 4.0 0.00 0.00 0.00 70 1009.1
20260509150053 65 140 0.0 3.0 0.00 0.00 0.00 73 1009.1
20260509144551 63 359 0.0 2.0 0.00 0.00 0.00 73 1009.1
20260509143045 62 150 0.0 5.0 0.00 0.00 0.00 77 1009.1
20260509141544 60 136 0.0 3.0 0.00 0.00 0.00 80 1009.0
20260509140050 59 224 0.0 6.0 0.00 0.00 0.00 82 1009.0
20260509134534 57 150 0.0 1.0 0.00 0.00 0.00 86 1009.0
20260509133038 57 114 0.0 1.0 0.00 0.00 0.00 88 1009.0
20260509131534 56 167 0.0 1.0 0.00 0.00 0.00 89 1008.9
20260509130033 56 218 0.0 1.0 0.00 0.00 0.00 89 1008.8
20260509124532 56 219 0.0 0.0 0.00 0.00 0.00 89 1008.9
20260509123031 55 219 0.0 1.0 0.00 0.00 0.00 89 1008.8
20260509121530 55 212 0.0 0.0 0.00 0.00 0.00 90 1008.9
20260509120030 55 143 0.0 0.0 0.00 0.00 0.00 90 1008.6
20260509114534 55 143 0.0 0.0 0.00 0.00 0.00 90 1008.4
20260509113030 55 143 0.0 0.0 0.00 0.00 0.00 90 1008.2
20260509111529 55 143 0.0 0.0 0.00 0.00 0.00 90 1008.1
20260509110027 55 143 0.0 0.0 0.00 0.00 0.00 90 1007.9
20260509104527 55 143 0.0 0.0 0.00 0.00 0.00 89 1007.9
20260509103025 55 143 0.0 0.0 0.00 0.00 0.00 89 1008.0
20260509101524 55 143 0.0 0.0 0.00 0.00 0.00 89 1008.2
20260509100028 55 143 0.0 0.0 0.00 0.00 0.00 89 1008.2
20260509094523 55 143 0.0 0.0 0.00 0.00 0.00 88 1008.1
20260509093023 55 143 0.0 0.0 0.00 0.00 0.00 88 1008.2
20260509091522 54 143 0.0 0.0 0.00 0.00 0.00 87 1008.6
20260509090033 54 143 0.0 0.0 0.00 0.00 0.00 87 1008.7
20260509084519 54 143 0.0 0.0 0.00 0.00 0.00 87 1008.4
20260509083018 54 143 0.0 0.0 0.00 0.00 0.00 86 1008.4
20260509081518 54 143 0.0 0.0 0.00 0.00 0.00 86 1008.5
20260509080017 55 143 0.0 0.0 0.00 0.00 0.00 85 1008.4
20260509074515 55 143 0.0 0.0 0.00 0.00 0.00 84 1008.5
20260509073028 55 143 0.0 0.0 0.00 0.00 0.00 83 1008.5
20260509071512 56 143 0.0 0.0 0.00 0.00 0.00 82 1008.4
20260509070010 56 143 0.0 0.0 0.00 0.00 0.00 81 1008.7
20260509064506 56 143 0.0 0.0 0.00 0.00 0.00 81 1009.2
20260509063015 56 143 0.0 0.0 0.00 0.00 0.00 80 1009.1
20260509061505 56 143 0.0 0.0 0.00 0.00 0.00 79 1009.1
20260509060006 56 143 0.0 0.0 0.00 0.00 0.00 79 1009.0
20260509054504 57 143 0.0 0.0 0.00 0.00 0.00 80 1009.1
20260509053003 57 143 0.0 0.0 0.00 0.00 0.00 79 1009.1
20260509051506 57 143 0.0 0.0 0.00 0.00 0.00 79 1009.0
20260509050104 57 143 0.0 0.0 0.00 0.00 0.00 78 1009.1
20260509044607 57 143 0.0 0.0 0.00 0.00 0.00 76 1009.0
20260509043100 57 143 0.0 0.0 0.00 0.00 0.00 76 1009.1
20260509041556 57 143 0.0 0.0 0.00 0.00 0.00 77 1009.1
20260509040106 58 143 0.0 0.0 0.00 0.00 0.00 77 1009.1
20260509034551 58 143 0.0 0.0 0.00 0.00 0.00 77 1009.3
20260509033110 58 143 0.0 0.0 0.00 0.00 0.00 76 1009.4
20260509031550 58 143 0.0 0.0 0.00 0.00 0.00 75 1009.5
20260509030048 58 143 0.0 0.0 0.00 0.00 0.00 75 1009.6
20260509024556 58 143 0.0 0.0 0.00 0.00 0.00 74 1009.9
20260509023046 58 143 0.0 0.0 0.00 0.00 0.00 72 1010.2
20260509021546 59 143 0.0 0.0 0.00 0.00 0.00 71 1010.1
20260509020052 59 143 0.0 0.0 0.00 0.00 0.00 68 1010.0
20260509014544 60 142 0.0 0.0 0.00 0.00 0.00 68 1009.9
20260509013044 61 142 0.0 0.0 0.00 0.00 0.00 66 1009.8
20260509011549 61 142 0.0 0.0 0.00 0.00 0.00 65 1009.9
20260509010043 63 142 0.0 0.0 0.00 0.00 0.00 62 1009.9
20260509004542 64 142 0.0 0.0 0.00 0.00 0.00 60 1009.8
20260509003043 66 144 0.0 2.0 0.00 0.00 0.00 57 1009.8
20260509001541 67 135 0.0 3.0 0.00 0.00 0.00 50 1009.7
20260509000040 68 170 0.0 4.0 0.00 0.00 0.00 49 1009.7
20260508234541 68 134 1.0 5.0 0.00 0.00 0.00 46 1009.9
20260508233042 69 141 0.0 2.0 0.00 0.00 0.00 46 1009.8
20260508231544 69 212 0.0 5.0 0.00 0.00 0.00 45 1009.9
20260508230042 69 257 0.0 7.0 0.00 0.00 0.00 44 1010.1
20260508224549 70 132 0.0 4.0 0.00 0.00 0.00 44 1010.1
20260508223038 71 83 0.0 6.0 0.00 0.00 0.00 42 1009.9